This is the latest recevied weather packets stored in our database for station/object KB3GVC-13. If no packets are shown the sender has not sent any weather packets the latest 10 day(s).
| Time | Temp. | Humidity | Pressure | Rain* | Wind** | Luminosity | Snow |
|---|---|---|---|---|---|---|---|
| 1778006992 | 28.89° C | 32% | 1011 hPa | 0 mm | - | - | - |
| 1778006688 | 28.33° C | 35% | 1011.1 hPa | 0 mm | - | - | - |
| 1778006385 | 28.33° C | 35% | 1011.2 hPa | 0 mm | - | - | - |
| 1778006082 | 28.33° C | 38% | 1011.2 hPa | 0 mm | - | - | - |
| 1778005779 | 27.78° C | 37% | 1011.4 hPa | 0 mm | - | - | - |
| 1778005476 | 27.78° C | 37% | 1011.3 hPa | 0 mm | - | - | - |
| 1778005172 | 28.33° C | 37% | 1011.2 hPa | 0 mm | - | - | - |
| 1778004870 | 27.78° C | 40% | 1011.3 hPa | 0 mm | - | - | - |
| 1778004566 | 27.78° C | 39% | 1011.7 hPa | 0 mm | - | - | - |
| 1778004263 | 27.78° C | 41% | 1011.7 hPa | 0 mm | - | - | - |
| 1778003959 | 27.78° C | 39% | 1011.6 hPa | 0 mm | - | - | - |
| 1778003656 | 27.78° C | 39% | 1011.6 hPa | 0 mm | - | - | - |
| 1778003352 | 27.78° C | 40% | 1011.6 hPa | 0 mm | - | - | - |
| 1778003050 | 27.78° C | 40% | 1011.7 hPa | 0 mm | - | - | - |
| 1778002746 | 27.22° C | 42% | 1011.9 hPa | 0 mm | - | - | - |
| 1778002442 | 27.22° C | 42% | 1011.8 hPa | 0 mm | - | - | - |
| 1778002139 | 26.67° C | 44% | 1012 hPa | 0 mm | - | - | - |
| 1778001837 | 26.67° C | 43% | 1011.9 hPa | 0 mm | - | - | - |
| 1778001537 | 26.67° C | 47% | 1011.9 hPa | 0 mm | - | - | - |
| 1778001234 | 26.67° C | 44% | 1012.2 hPa | 0 mm | - | - | - |
| 1778000930 | 26.67° C | 45% | 1012.1 hPa | 0 mm | - | - | - |
| 1778000627 | 26.67° C | 44% | 1012.1 hPa | 0 mm | - | - | - |
| 1778000322 | 26.67° C | 44% | 1012.1 hPa | 0 mm | - | - | - |
| 1778000018 | 26.67° C | 45% | 1012.2 hPa | 0 mm | - | - | - |
| 1777999714 | 26.67° C | 46% | 1012.4 hPa | 0 mm | - | - | - |
* Rain latest hour (hover to see other rain measurements)
** Current wind speed in m/s (hover to see current wind gust speed)